Miscellaneous Local Product
Issued by NWS North Platte, NE

Home | Current Version | Previous Version | Graphics & Text | Print | Product List | Glossary On
Versions: 1 2 3 4 5 6 7 8 9 10 11 12 13 14 15 16 17 18 19 20 21 22 23 24 25 26 27 28 29 30 31 32 33 34 35 36 37 38 39 40 41 42 43 44 45 46 47 48 49 50
000
AXUS43 KLBF 180110
MISLBF


WESTERN AND NORTH CENTRAL NEBRASKA HOURLY WEATHER ROUNDUP
NATIONAL WEATHER SERVICE NORTH PLATTE NE
800 PM CDT FRI APR 17 2015

***STATIONS NOT REPORTING VARIABLES SUCH AS SKY/WEATHER OR
PRESSURE ARE PROVIDED BY THE NEBRASKA DEPARTMENT OF
ROADS...RAWS...AND APRS NETWORKS...AND ARE NOT UNDER
NATIONAL WEATHER SERVICE QUALITY CONTROL***

...OBSERVATIONS IN AND NEAR THE EASTERN PANHANDLE OF NEBRASKA...

CITY           SKY/WX    TMP DP  RH WIND       PRES   REMARKS
PINE RIDGE     LGT RAIN  48  45  89 NE8       30.10S FOG
CHADRON        LGT RAIN  46  44  93 NE14      30.08F FOG
ALLIANCE       LGT RAIN  48  47  96 E16       30.03S FOG
SIDNEY         CLOUDY    51  50  96 E10       29.99S FOG
WHITECLAY        N/A     46  44  95 NE18        N/A
CRESCENT LAKE    N/A     49  49  99 NE10        N/A
$$

...OBSERVATIONS IN NORTH CENTRAL NEBRASKA...

CITY           SKY/WX    TMP DP  RH WIND       PRES   REMARKS
VALENTINE      LGT RAIN  54  51  90 NE8       30.06F
THEDFORD       CLOUDY    54  53  96 E13       30.04S FOG
AINSWORTH      CLOUDY    54  53  94 NE8       30.05S
O`NEILL        MOCLDY    62  49  62 N8        30.04F
ORD            CLOUDY    60  53  77 N8        29.99F
BROKEN BOW     MOCLDY    59  54  83 NE15      30.00S
SPRINGVIEW       N/A     55  51  86 CALM        N/A
ROSE             N/A     57  56  99 N7          N/A
NEWPORT          N/A     56  54  95 N12         N/A
SARGENT          N/A     58  55  90 E3          N/A
COMSTOCK         N/A     63  63 100 NE5         N/A
EWING            N/A     62  50  64 NE3         N/A
$$

...OBSERVATIONS IN SOUTHWEST NEBRASKA AND FAR NORTHEAST COLORADO...

CITY           SKY/WX    TMP DP  RH WIND       PRES   REMARKS
WRAY           MOCLDY    63  45  52 SE13      29.93S
HOLYOKE        FAIR      59  52  77 E10       29.95S
IMPERIAL       MOCLDY    59  50  72 E8        29.93F
OGALLALA       MOCLDY    55  54  95 NE10      29.97F FOG
NORTH PLATTE   CLOUDY    59  54  83 E14       29.98S
MCCOOK         PTCLDY    64  52  64 E12       29.92F
LEXINGTON      PTCLDY    62  57  84 E12       29.97S
SUTHERLAND       N/A     55  52  90 E10         N/A
BRADY            N/A     59  55  85 MISG        N/A
GOTHENBURG       N/A     62  54  75 E13         N/A
CALLAWAY         N/A     59  58  97 E9          N/A
$$

...NORTH PLATTE AREA...

CITY           SKY/WX    TMP DP  RH WIND       PRES   REMARKS
AIRPORT        CLOUDY    59  54  83 E14       29.98S
DOWNTOWN         N/A     59  54  84 E5          N/A
$$

...SOME WEATHER OBSERVATIONS FROM AROUND THE REGION...

CITY           SKY/WX    TMP DP  RH WIND       PRES   REMARKS
DENVER         MOCLDY    45  39  79 N15       29.97R
LARAMIE        CLOUDY    32  28  85 N9        30.04R WCI  24
CHEYENNE       LGT RAIN  35  31  85 E9        30.07R FOG     WCI  28
SCOTTSBLUFF    LGT RAIN  45  45 100 NW17      30.03F FOG
RAPID CITY     CLOUDY    52  39  61 SW8       30.11F
PIERRE         CLOUDY    65  35  33 CALM      30.05S
WINNER         LGT RAIN  58  53  84 W5        30.07F
SIOUX FALLS    CLOUDY    70  41  34 CALM      30.02S
OMAHA          CLOUDY    74  52  46 E6        29.98R
GRAND ISLAND   MOCLDY    63  54  72 SE6       29.99F
KANSAS CITY    CLOUDY    66  60  81 E3        29.96F
WICHITA        CLOUDY    68  57  68 CALM      29.92F
HAYS           MOCLDY    66  50  55 E8        29.93S
LIBERAL        PTCLDY    66  48  52 SE17G24   29.89F
GOODLAND       MOCLDY    55  45  68 NE8       29.93F
$$



USA.gov is the U.S. government's official web portal to all federal, state and local government web resources and services.